Total_Precipitation_Accumulation
2.77 2.80 2.80 2.88 2.76 2.60 2.60 2.73 2.85 2.62 2.41 2.19 2.00 1.81 1.84 1.83 1.96 1.71 1.69 1.76 1.68 1.54 1.40 1.30 1.30 1.47 1.81 2.22 2.48 2.47 2.54 2.81 3.26 3.64 3.49 3.37 3.29 3.27
2.47 2.52 2.55 2.59 2.58 2.53 2.53 2.59 2.62 2.59 2.46 2.19 1.90 1.66 1.70 1.75 1.95 1.67 1.73 1.96 1.88 1.71 1.48 1.40 1.35 1.35 1.48 1.63 1.75 1.71 1.70 1.84 2.22 2.92 3.22 3.20 3.22 3.33
2.13 2.17 2.30 2.37 2.55 2.57 2.53 2.53 2.52 2.45 2.32 2.17 1.90 1.70 1.67 1.77 1.85 1.73 1.75 1.81 1.74 1.71 1.56 1.47 1.33 1.38 1.49 1.54 1.58 1.50 1.41 1.40 1.52 1.79 2.17 2.42 2.60 2.86
1.87 1.92 2.05 2.12 2.26 2.37 2.47 2.39 2.41 2.39 2.36 2.31 2.08 1.87 1.78 1.78 1.87 1.84 1.71 1.68 1.69 1.77 1.60 1.50 1.39 1.30 1.42 1.44 1.55 1.62 1.50 1.37 1.31 1.35 1.53 1.76 1.99 2.23
1.65 1.71 1.80 1.89 1.98 2.09 2.17 2.25 2.29 2.28 2.36 2.33 2.13 1.95 1.79 1.74 1.80 1.75 1.69 1.75 1.65 1.76 1.73 1.59 1.53 1.40 1.40 1.42 1.41 1.54 1.55 1.47 1.31 1.29 1.37 1.50 1.67 1.87
1.44 1.43 1.46 1.50 1.63 1.77 1.87 2.00 2.15 2.30 2.38 2.39 2.24 2.00 1.82 1.78 1.86 1.92 1.90 1.80 1.78 1.68 1.73 1.69 1.68 1.63 1.50 1.47 1.37 1.37 1.48 1.53 1.36 1.28 1.28 1.31 1.37 1.47
1.51 1.39 1.28 1.30 1.45 1.56 1.62 1.85 2.04 2.18 2.31 2.36 2.27 2.09 1.93 1.86 1.83 1.84 1.93 2.01 2.01 1.84 1.78 1.66 1.62 1.49 1.36 1.38 1.37 1.31 1.30 1.33 1.28 1.16 1.09 1.06 1.09 1.17
1.45 1.43 1.43 1.39 1.28 1.27 1.37 1.54 1.75 1.91 2.06 2.16 2.19 2.01 1.83 1.81 1.89 1.92 1.94 2.02 2.07 1.90 1.83 1.85 1.79 1.66 1.49 1.35 1.41 1.35 1.29 1.28 1.28 1.23 1.14 1.07 1.08 1.12
1.39 1.40 1.43 1.39 1.47 1.33 1.31 1.33 1.34 1.48 1.72 1.92 1.93 1.83 1.88 1.84 1.84 1.82 1.81 1.82 1.87 1.90 1.88 1.87 1.82 1.73 1.55 1.47 1.57 1.49 1.44 1.38 1.34 1.31 1.26 1.17 1.11 1.08
1.50 1.53 1.58 1.58 1.51 1.64 1.61 1.49 1.37 1.32 1.41 1.34 1.40 1.70 1.85 1.93 1.96 1.98 2.01 1.92 1.85 1.88 1.82 1.83 1.69 1.62 1.53 1.45 1.54 1.47 1.43 1.39 1.36 1.32 1.30 1.30 1.28 1.25
1.53 1.50 1.56 1.55 1.81 1.93 1.75 1.64 1.53 1.44 1.61 1.63 1.60 1.68 1.80 1.84 1.86 1.92 1.99 1.96 1.87 1.80 1.71 1.64 1.57 1.61 1.68 1.58 1.54 1.63 1.59 1.50 1.42 1.44 1.40 1.36 1.39 1.40
1.60 1.55 1.73 1.67 1.75 1.76 1.63 1.77 1.67 1.51 1.45 1.41 1.39 1.44 1.48 1.58 1.68 1.67 1.81 1.88 1.79 1.82 1.65 1.61 1.62 1.71 1.77 1.63 1.47 1.48 1.58 1.65 1.57 1.52 1.52 1.47 1.46 1.37
1.52 1.52 1.50 1.70 1.58 1.58 1.60 1.64 1.77 1.74 1.69 1.70 1.59 1.48 1.42 1.43 1.44 1.48 1.62 1.74 1.76 1.74 1.60 1.59 1.67 1.76 1.70 1.56 1.50 1.41 1.39 1.45 1.46 1.39 1.38 1.43 1.45 1.36
1.36 1.23 1.25 1.44 1.35 1.36 1.36 1.46 1.68 1.73 1.65 1.70 1.65 1.54 1.43 1.35 1.33 1.38 1.53 1.61 1.61 1.60 1.64 1.65 1.70 1.74 1.74 1.55 1.45 1.43 1.43 1.44 1.48 1.42 1.28 1.39 1.42 1.45
1.19 1.24 1.18 1.17 1.17 1.11 1.17 1.33 1.44 1.59 1.66 1.66 1.54 1.43 1.39 1.39 1.40 1.41 1.43 1.54 1.57 1.54 1.54 1.53 1.62 1.74 1.81 1.69 1.53 1.45 1.53 1.60 1.59 1.54 1.44 1.32 1.25 1.29
1.04 1.00 1.01 1.02 1.03 1.01 1.02 1.06 1.15 1.43 1.67 1.61 1.49 1.43 1.44 1.49 1.57 1.59 1.56 1.52 1.59 1.58 1.56 1.58 1.59 1.67 1.68 1.57 1.57 1.56 1.55 1.64 1.63 1.62 1.58 1.49 1.34 1.23
1.22 1.12 1.07 1.01 0.99 0.99 0.99 1.06 1.20 1.36 1.54 1.48 1.50 1.47 1.51 1.60 1.62 1.65 1.74 1.73 1.68 1.58 1.62 1.72 1.80 1.83 1.77 1.71 1.69 1.61 1.65 1.64 1.67 1.70 1.70 1.64 1.48 1.31
1.34 1.25 1.27 1.22 1.17 1.14 1.10 1.08 1.12 1.22 1.32 1.42 1.47 1.50 1.53 1.59 1.63 1.66 1.74 1.78 1.75 1.67 1.61 1.69 1.88 2.05 2.03 1.87 1.69 1.64 1.73 1.79 1.82 1.80 1.75 1.66 1.52 1.40
1.22 1.21 1.24 1.23 1.18 1.16 1.14 1.12 1.13 1.16 1.25 1.35 1.50 1.59 1.63 1.67 1.74 1.78 1.78 1.80 1.75 1.68 1.66 1.69 1.84 2.05 2.14 1.91 1.66 1.56 1.66 1.76 1.89 1.83 1.70 1.59 1.45 1.35
1.04 1.13 1.17 1.22 1.21 1.19 1.15 1.12 1.12 1.14 1.20 1.26 1.38 1.52 1.69 1.83 1.87 1.89 1.92 1.93 1.89 1.81 1.80 1.79 1.77 1.86 1.99 1.90 1.69 1.52 1.58 1.69 1.79 1.77 1.63 1.53 1.46 1.50
0.86 0.97 1.05 1.11 1.11 1.13 1.17 1.20 1.21 1.21 1.21 1.25 1.29 1.35 1.47 1.67 1.82 1.89 1.99 2.18 2.16 2.04 1.96 1.86 1.79 1.93 1.90 1.93 1.83 1.52 1.44 1.52 1.59 1.61 1.59 1.63 1.59 1.50
0.85 0.91 0.97 1.03 1.09 1.13 1.17 1.18 1.18 1.18 1.21 1.25 1.28 1.33 1.40 1.50 1.62 1.73 1.86 2.03 2.11 2.14 2.09 1.95 1.90 2.03 2.07 2.11 1.94 1.65 1.52 1.45 1.48 1.60 1.60 1.64 1.62 1.53
0.86 0.88 0.89 0.95 1.01 1.10 1.24 1.30 1.26 1.23 1.24 1.30 1.37 1.41 1.45 1.52 1.55 1.63 1.71 1.82 1.93 1.99 2.06 2.07 2.01 2.02 2.02 1.97 1.92 1.82 1.69 1.62 1.55 1.51 1.43 1.49 1.50 1.41